QPF
0.07 0.08 0.08 0.13 0.19 0.20 0.27 0.31 0.26 0.20 0.17 0.14 0.12 0.10 0.08 0.09 0.08 0.06 0.05 0.05 0.04 0.03 0.03 0.02 0.01 0.00 0.00 0.01 0.00 0.00 0.01 0.01 0.00 0.00 0.01 0.01 0.01 0.01 0.02 0.02 0.01 0.01 0.02
0.05 0.07 0.09 0.13 0.18 0.22 0.32 0.38 0.40 0.32 0.27 0.21 0.18 0.17 0.14 0.12 0.10 0.08 0.07 0.04 0.03 0.02 0.02 0.01 0.01 0.00 0.01 0.01 0.00 0.00 0.00 0.00 0.00 0.00 0.00 0.01 0.02 0.02 0.02 0.01 0.01 0.01 0.01
0.03 0.07 0.12 0.17 0.22 0.24 0.30 0.35 0.37 0.38 0.37 0.33 0.28 0.24 0.19 0.15 0.10 0.07 0.06 0.04 0.02 0.01 0.01 0.01 0.00 0.00 0.00 0.00 0.00 0.00 0.00 0.00 0.00 0.00 0.00 0.00 0.01 0.01 0.01 0.00 0.01 0.00 0.01
0.03 0.05 0.11 0.16 0.21 0.19 0.23 0.25 0.29 0.33 0.37 0.38 0.33 0.25 0.19 0.13 0.09 0.06 0.05 0.04 0.02 0.02 0.01 0.01 0.01 0.00 0.00 0.00 0.00 0.00 0.00 0.00 0.00 0.00 0.00 0.00 0.00 0.00 0.00 0.00 0.00 0.00 0.00
0.01 0.02 0.04 0.07 0.12 0.13 0.16 0.16 0.20 0.24 0.26 0.32 0.38 0.30 0.22 0.16 0.12 0.09 0.07 0.05 0.03 0.02 0.03 0.02 0.01 0.01 0.01 0.00 0.00 0.00 0.00 0.00 0.00 0.00 0.00 0.00 0.00 0.00 0.00 0.00 0.00 0.00 0.00
0.00 0.01 0.02 0.05 0.08 0.08 0.09 0.10 0.14 0.18 0.18 0.20 0.24 0.28 0.23 0.17 0.13 0.09 0.06 0.06 0.06 0.04 0.04 0.03 0.02 0.01 0.01 0.01 0.00 0.00 0.00 0.00 0.00 0.00 0.00 0.00 0.00 0.00 0.00 0.00 0.00 0.00 0.00
0.00 0.01 0.01 0.03 0.05 0.05 0.05 0.07 0.12 0.19 0.17 0.13 0.12 0.16 0.15 0.11 0.09 0.09 0.07 0.05 0.04 0.03 0.03 0.02 0.01 0.01 0.01 0.01 0.00 0.00 0.00 0.00 0.00 0.00 0.00 0.00 0.00 0.00 0.00 0.00 0.00 0.00 0.00
0.00 0.00 0.01 0.01 0.02 0.04 0.05 0.03 0.06 0.13 0.19 0.16 0.11 0.10 0.10 0.09 0.06 0.05 0.05 0.05 0.04 0.03 0.03 0.02 0.02 0.01 0.01 0.00 0.00 0.00 0.00 0.00 0.00 0.00 0.00 0.00 0.00 0.00 0.00 0.00 0.00 0.00 0.00
0.00 0.00 0.01 0.01 0.01 0.03 0.05 0.03 0.03 0.05 0.11 0.15 0.14 0.10 0.08 0.06 0.05 0.03 0.02 0.03 0.02 0.03 0.03 0.03 0.02 0.02 0.01 0.01 0.00 0.00 0.00 0.00 0.00 0.00 0.00 0.00 0.00 0.00 0.00 0.00 0.00 0.00 0.00
0.01 0.00 0.00 0.01 0.00 0.01 0.04 0.04 0.03 0.03 0.06 0.12 0.12 0.11 0.08 0.05 0.04 0.04 0.03 0.02 0.02 0.02 0.02 0.02 0.02 0.02 0.02 0.01 0.00 0.00 0.00 0.00 0.00 0.00 0.00 0.00 0.00 0.00 0.00 0.00 0.00 0.00 0.00
0.01 0.00 0.00 0.00 0.00 0.01 0.03 0.04 0.04 0.03 0.04 0.08 0.10 0.10 0.08 0.07 0.06 0.04 0.04 0.03 0.02 0.01 0.01 0.01 0.01 0.02 0.02 0.02 0.01 0.00 0.00 0.00 0.00 0.00 0.00 0.00 0.00 0.00 0.00 0.00 0.00 0.00 0.00
0.01 0.00 0.00 0.00 0.00 0.00 0.02 0.05 0.04 0.04 0.05 0.08 0.10 0.08 0.07 0.08 0.07 0.05 0.04 0.04 0.03 0.01 0.01 0.01 0.01 0.02 0.02 0.02 0.01 0.01 0.00 0.00 0.00 0.00 0.00 0.00 0.00 0.00 0.00 0.01 0.00 0.00 0.01
0.01 0.01 0.00 0.00 0.00 0.00 0.00 0.02 0.03 0.03 0.05 0.08 0.10 0.08 0.08 0.08 0.07 0.05 0.05 0.03 0.03 0.02 0.02 0.01 0.01 0.01 0.02 0.02 0.02 0.01 0.00 0.00 0.01 0.01 0.01 0.01 0.01 0.01 0.01 0.01 0.01 0.01 0.01
0.01 0.01 0.01 0.01 0.01 0.01 0.00 0.00 0.01 0.02 0.04 0.06 0.07 0.06 0.07 0.07 0.05 0.05 0.03 0.03 0.03 0.03 0.03 0.03 0.02 0.03 0.03 0.02 0.02 0.02 0.02 0.02 0.02 0.01 0.01 0.01 0.00 0.00 0.00 0.00 0.00 0.00 0.00
0.01 0.01 0.01 0.01 0.01 0.01 0.01 0.00 0.01 0.01 0.03 0.04 0.05 0.05 0.06 0.06 0.04 0.03 0.03 0.03 0.04 0.04 0.05 0.05 0.05 0.05 0.06 0.06 0.05 0.04 0.03 0.02 0.02 0.01 0.01 0.01 0.00 0.00 0.00 0.00 0.00 0.00 0.00
0.02 0.02 0.01 0.02 0.02 0.02 0.01 0.01 0.01 0.02 0.03 0.03 0.02 0.02 0.02 0.03 0.02 0.03 0.04 0.05 0.06 0.06 0.08 0.11 0.11 0.09 0.08 0.08 0.06 0.05 0.03 0.03 0.03 0.02 0.01 0.01 0.01 0.01 0.00 0.00 0.01 0.01 0.01
0.03 0.03 0.02 0.02 0.03 0.03 0.03 0.03 0.03 0.02 0.02 0.03 0.03 0.04 0.05 0.04 0.03 0.05 0.06 0.07 0.07 0.07 0.06 0.08 0.09 0.08 0.06 0.06 0.06 0.06 0.05 0.04 0.04 0.03 0.02 0.02 0.01 0.01 0.01 0.01 0.01 0.01 0.01
0.03 0.04 0.03 0.04 0.04 0.05 0.06 0.06 0.05 0.04 0.05 0.05 0.05 0.06 0.07 0.07 0.08 0.09 0.09 0.09 0.10 0.10 0.08 0.07 0.07 0.07 0.07 0.07 0.08 0.08 0.06 0.05 0.04 0.02 0.02 0.01 0.01 0.01 0.01 0.01 0.01 0.01 0.00
0.04 0.05 0.06 0.06 0.06 0.06 0.06 0.06 0.05 0.05 0.05 0.05 0.06 0.07 0.09 0.11 0.12 0.11 0.11 0.14 0.15 0.15 0.14 0.12 0.10 0.09 0.08 0.08 0.08 0.08 0.07 0.06 0.04 0.03 0.03 0.02 0.01 0.02 0.02 0.02 0.01 0.01 0.01
0.05 0.05 0.06 0.06 0.06 0.06 0.06 0.07 0.07 0.08 0.09 0.09 0.10 0.11 0.13 0.16 0.18 0.19 0.19 0.18 0.16 0.14 0.12 0.12 0.11 0.09 0.08 0.07 0.07 0.07 0.07 0.06 0.06 0.05 0.04 0.03 0.03 0.03 0.03 0.02 0.02 0.01 0.01
0.06 0.05 0.05 0.04 0.04 0.05 0.06 0.08 0.09 0.10 0.12 0.13 0.16 0.17 0.18 0.22 0.23 0.22 0.20 0.18 0.16 0.15 0.13 0.12 0.11 0.10 0.09 0.07 0.07 0.06 0.05 0.05 0.05 0.04 0.04 0.04 0.05 0.05 0.04 0.03 0.03 0.02 0.02
0.06 0.04 0.04 0.04 0.04 0.05 0.06 0.08 0.09 0.11 0.12 0.12 0.14 0.15 0.16 0.18 0.21 0.22 0.22 0.21 0.20 0.18 0.16 0.14 0.13 0.12 0.12 0.11 0.10 0.09 0.08 0.08 0.07 0.06 0.07 0.08 0.09 0.07 0.07 0.06 0.05 0.04 0.04
0.05 0.04 0.03 0.03 0.04 0.04 0.05 0.06 0.06 0.08 0.09 0.09 0.09 0.09 0.08 0.09 0.12 0.13 0.12 0.13 0.15 0.19 0.22 0.21 0.19 0.17 0.15 0.15 0.15 0.14 0.13 0.11 0.09 0.09 0.09 0.08 0.07 0.06 0.05 0.04 0.04 0.03 0.03
0.03 0.03 0.03 0.04 0.04 0.04 0.05 0.05 0.05 0.05 0.05 0.06 0.06 0.05 0.04 0.03 0.04 0.05 0.08 0.13 0.17 0.21 0.24 0.24 0.23 0.21 0.20 0.18 0.15 0.13 0.12 0.10 0.08 0.06 0.05 0.05 0.04 0.03 0.03 0.03 0.03 0.02 0.02
0.02 0.02 0.02 0.02 0.02 0.02 0.03 0.04 0.04 0.04 0.04 0.05 0.06 0.05 0.04 0.02 0.02 0.03 0.05 0.09 0.11 0.11 0.12 0.13 0.13 0.13 0.13 0.12 0.10 0.08 0.07 0.06 0.05 0.05 0.04 0.04 0.03 0.03 0.03 0.03 0.03 0.02 0.02
0.02 0.01 0.01 0.01 0.01 0.02 0.02 0.02 0.03 0.03 0.03 0.03 0.04 0.03 0.03 0.03 0.03 0.03 0.03 0.04 0.04 0.04 0.04 0.05 0.06 0.06 0.06 0.06 0.06 0.05 0.05 0.05 0.04 0.04 0.03 0.03 0.04 0.04 0.03 0.03 0.03 0.03 0.03
MSLP
1008.46 1009.04 1009.54 1009.93 1010.24 1010.51 1010.77 1011.09 1011.51 1012.03 1012.63 1013.27 1013.91 1014.49 1015.00 1015.42 1015.76 1016.05 1016.34 1016.65 1017.01 1017.41 1017.85 1018.30 1018.72 1019.09 1019.39 1019.63 1019.82 1019.99 1020.16 1020.35 1020.57 1020.79 1021.00 1021.17 1021.27 1021.29 1021.23 1021.10 1020.94 1020.76 1020.62
1008.60 1009.09 1009.48 1009.75 1009.92 1010.06 1010.24 1010.53 1010.97 1011.56 1012.28 1013.06 1013.84 1014.54 1015.13 1015.58 1015.91 1016.16 1016.39 1016.65 1016.97 1017.37 1017.83 1018.32 1018.79 1019.21 1019.55 1019.81 1019.99 1020.14 1020.29 1020.45 1020.66 1020.89 1021.14 1021.36 1021.52 1021.61 1021.58 1021.47 1021.30 1021.09 1020.88
1008.66 1009.06 1009.34 1009.49 1009.54 1009.58 1009.69 1009.95 1010.42 1011.09 1011.93 1012.85 1013.76 1014.58 1015.25 1015.74 1016.07 1016.29 1016.47 1016.68 1016.97 1017.35 1017.81 1018.32 1018.83 1019.29 1019.65 1019.92 1020.10 1020.23 1020.34 1020.49 1020.69 1020.93 1021.21 1021.49 1021.72 1021.87 1021.91 1021.83 1021.67 1021.44 1021.20
1008.63 1008.96 1009.15 1009.21 1009.18 1009.14 1009.20 1009.44 1009.93 1010.67 1011.60 1012.63 1013.66 1014.59 1015.34 1015.87 1016.21 1016.42 1016.57 1016.73 1016.98 1017.34 1017.80 1018.33 1018.85 1019.33 1019.71 1019.98 1020.16 1020.27 1020.36 1020.49 1020.68 1020.93 1021.24 1021.57 1021.86 1022.07 1022.18 1022.15 1022.02 1021.80 1021.53
1008.53 1008.82 1008.97 1008.98 1008.90 1008.82 1008.84 1009.07 1009.57 1010.34 1011.32 1012.43 1013.53 1014.54 1015.35 1015.93 1016.29 1016.50 1016.63 1016.78 1017.01 1017.35 1017.80 1018.32 1018.86 1019.34 1019.73 1020.01 1020.18 1020.28 1020.36 1020.47 1020.66 1020.92 1021.24 1021.60 1021.94 1022.22 1022.38 1022.41 1022.31 1022.12 1021.85
1008.40 1008.68 1008.84 1008.85 1008.77 1008.68 1008.69 1008.90 1009.38 1010.14 1011.13 1012.25 1013.39 1014.43 1015.28 1015.89 1016.29 1016.51 1016.65 1016.80 1017.02 1017.35 1017.79 1018.31 1018.84 1019.33 1019.73 1020.01 1020.19 1020.28 1020.36 1020.46 1020.63 1020.89 1021.22 1021.60 1021.96 1022.28 1022.48 1022.56 1022.52 1022.36 1022.12
1008.26 1008.59 1008.80 1008.87 1008.83 1008.76 1008.76 1008.95 1009.40 1010.11 1011.05 1012.13 1013.24 1014.27 1015.13 1015.76 1016.18 1016.44 1016.61 1016.77 1017.00 1017.33 1017.77 1018.28 1018.81 1019.30 1019.70 1019.99 1020.17 1020.27 1020.34 1020.44 1020.61 1020.85 1021.17 1021.54 1021.92 1022.24 1022.48 1022.60 1022.60 1022.48 1022.28
1008.15 1008.56 1008.87 1009.04 1009.07 1009.04 1009.06 1009.23 1009.61 1010.24 1011.09 1012.08 1013.12 1014.09 1014.92 1015.56 1016.00 1016.29 1016.50 1016.70 1016.95 1017.29 1017.73 1018.23 1018.75 1019.23 1019.63 1019.93 1020.12 1020.23 1020.32 1020.41 1020.57 1020.79 1021.09 1021.44 1021.80 1022.12 1022.36 1022.50 1022.54 1022.47 1022.33
1008.08 1008.60 1009.04 1009.31 1009.45 1009.49 1009.54 1009.68 1010.00 1010.52 1011.25 1012.11 1013.03 1013.91 1014.69 1015.31 1015.76 1016.08 1016.33 1016.57 1016.85 1017.20 1017.64 1018.14 1018.64 1019.12 1019.51 1019.81 1020.02 1020.15 1020.25 1020.36 1020.50 1020.71 1020.98 1021.29 1021.61 1021.90 1022.14 1022.29 1022.35 1022.33 1022.24
1008.03 1008.68 1009.23 1009.64 1009.88 1010.00 1010.09 1010.22 1010.47 1010.90 1011.49 1012.21 1012.99 1013.77 1014.46 1015.04 1015.49 1015.84 1016.12 1016.39 1016.70 1017.07 1017.50 1017.98 1018.47 1018.93 1019.32 1019.63 1019.85 1020.01 1020.13 1020.25 1020.40 1020.59 1020.82 1021.09 1021.37 1021.62 1021.83 1021.98 1022.06 1022.07 1022.03
1007.98 1008.72 1009.39 1009.91 1010.25 1010.46 1010.60 1010.73 1010.95 1011.29 1011.76 1012.34 1012.99 1013.65 1014.27 1014.79 1015.22 1015.58 1015.88 1016.18 1016.50 1016.87 1017.30 1017.76 1018.22 1018.66 1019.05 1019.36 1019.60 1019.79 1019.94 1020.08 1020.23 1020.41 1020.62 1020.85 1021.08 1021.29 1021.47 1021.60 1021.68 1021.73 1021.73
1007.89 1008.69 1009.42 1010.02 1010.46 1010.75 1010.95 1011.11 1011.31 1011.60 1011.99 1012.47 1013.01 1013.56 1014.09 1014.56 1014.96 1015.31 1015.62 1015.92 1016.25 1016.62 1017.03 1017.46 1017.90 1018.32 1018.69 1019.01 1019.27 1019.48 1019.66 1019.82 1020.00 1020.18 1020.37 1020.57 1020.76 1020.93 1021.07 1021.18 1021.26 1021.32 1021.36
1007.71 1008.51 1009.27 1009.91 1010.41 1010.78 1011.04 1011.26 1011.49 1011.76 1012.11 1012.52 1012.98 1013.46 1013.91 1014.33 1014.70 1015.03 1015.33 1015.64 1015.96 1016.31 1016.69 1017.10 1017.51 1017.89 1018.25 1018.57 1018.84 1019.07 1019.28 1019.48 1019.67 1019.87 1020.06 1020.23 1020.39 1020.53 1020.64 1020.73 1020.80 1020.86 1020.92
1007.41 1008.16 1008.89 1009.53 1010.07 1010.49 1010.83 1011.12 1011.40 1011.71 1012.06 1012.46 1012.87 1013.30 1013.70 1014.07 1014.41 1014.71 1015.00 1015.30 1015.60 1015.94 1016.29 1016.66 1017.04 1017.40 1017.74 1018.04 1018.32 1018.57 1018.81 1019.03 1019.25 1019.45 1019.65 1019.82 1019.96 1020.07 1020.16 1020.23 1020.29 1020.35 1020.41
1007.00 1007.65 1008.30 1008.90 1009.44 1009.90 1010.31 1010.68 1011.05 1011.42 1011.82 1012.23 1012.64 1013.04 1013.41 1013.75 1014.06 1014.34 1014.61 1014.89 1015.18 1015.49 1015.82 1016.16 1016.50 1016.83 1017.15 1017.44 1017.71 1017.97 1018.22 1018.47 1018.70 1018.92 1019.12 1019.29 1019.43 1019.54 1019.61 1019.67 1019.71 1019.76 1019.83
1006.49 1007.01 1007.55 1008.08 1008.59 1009.08 1009.54 1010.00 1010.46 1010.92 1011.38 1011.83 1012.26 1012.66 1013.02 1013.33 1013.62 1013.88 1014.14 1014.40 1014.68 1014.97 1015.28 1015.59 1015.90 1016.21 1016.49 1016.77 1017.03 1017.28 1017.53 1017.78 1018.03 1018.26 1018.47 1018.65 1018.80 1018.91 1018.98 1019.03 1019.07 1019.11 1019.17
1005.97 1006.33 1006.75 1007.19 1007.66 1008.14 1008.65 1009.18 1009.72 1010.27 1010.79 1011.30 1011.75 1012.16 1012.51 1012.82 1013.09 1013.34 1013.58 1013.83 1014.10 1014.38 1014.67 1014.96 1015.25 1015.53 1015.79 1016.03 1016.27 1016.51 1016.75 1016.99 1017.24 1017.48 1017.71 1017.90 1018.06 1018.18 1018.27 1018.32 1018.36 1018.40 1018.45
1005.50 1005.73 1006.01 1006.36 1006.77 1007.25 1007.78 1008.36 1008.96 1009.57 1010.15 1010.69 1011.17 1011.59 1011.94 1012.23 1012.48 1012.72 1012.95 1013.20 1013.46 1013.73 1014.02 1014.30 1014.57 1014.82 1015.05 1015.27 1015.48 1015.69 1015.91 1016.14 1016.39 1016.63 1016.87 1017.08 1017.26 1017.41 1017.51 1017.58 1017.64 1017.68 1017.72
1005.18 1005.30 1005.48 1005.75 1006.10 1006.55 1007.09 1007.68 1008.32 1008.95 1009.56 1010.12 1010.61 1011.01 1011.35 1011.62 1011.86 1012.08 1012.31 1012.54 1012.80 1013.07 1013.35 1013.62 1013.88 1014.11 1014.32 1014.51 1014.69 1014.88 1015.08 1015.29 1015.53 1015.77 1016.02 1016.26 1016.47 1016.64 1016.78 1016.87 1016.94 1016.99 1017.04
1005.10 1005.14 1005.25 1005.45 1005.76 1006.18 1006.69 1007.28 1007.91 1008.54 1009.14 1009.68 1010.15 1010.53 1010.84 1011.09 1011.30 1011.50 1011.71 1011.94 1012.19 1012.46 1012.73 1013.00 1013.24 1013.46 1013.65 1013.81 1013.97 1014.14 1014.31 1014.52 1014.75 1015.00 1015.26 1015.51 1015.75 1015.96 1016.12 1016.25 1016.34 1016.41 1016.45
1005.28 1005.29 1005.37 1005.54 1005.81 1006.19 1006.67 1007.22 1007.81 1008.40 1008.96 1009.46 1009.88 1010.22 1010.49 1010.70 1010.88 1011.06 1011.25 1011.47 1011.70 1011.96 1012.22 1012.47 1012.70 1012.90 1013.08 1013.23 1013.37 1013.52 1013.69 1013.89 1014.12 1014.37 1014.64 1014.92 1015.18 1015.41 1015.61 1015.77 1015.88 1015.96 1016.00
1005.74 1005.77 1005.85 1006.01 1006.26 1006.60 1007.04 1007.53 1008.06 1008.59 1009.08 1009.51 1009.87 1010.15 1010.36 1010.54 1010.68 1010.83 1010.99 1011.17 1011.39 1011.62 1011.86 1012.09 1012.30 1012.49 1012.66 1012.80 1012.94 1013.08 1013.25 1013.45 1013.68 1013.94 1014.22 1014.50 1014.78 1015.03 1015.25 1015.42 1015.55 1015.63 1015.68
1006.45 1006.53 1006.64 1006.80 1007.04 1007.36 1007.74 1008.17 1008.62 1009.06 1009.47 1009.83 1010.11 1010.33 1010.49 1010.62 1010.72 1010.83 1010.96 1011.11 1011.28 1011.48 1011.68 1011.88 1012.07 1012.25 1012.40 1012.54 1012.68 1012.83 1013.00 1013.21 1013.44 1013.70 1013.98 1014.27 1014.54 1014.80 1015.02 1015.19 1015.32 1015.40 1015.44
1007.33 1007.48 1007.63 1007.82 1008.06 1008.34 1008.67 1009.03 1009.40 1009.76 1010.09 1010.36 1010.58 1010.74 1010.85 1010.93 1011.00 1011.07 1011.15 1011.25 1011.38 1011.53 1011.69 1011.85 1012.01 1012.16 1012.30 1012.44 1012.58 1012.74 1012.92 1013.13 1013.36 1013.62 1013.88 1014.15 1014.41 1014.65 1014.85 1015.00 1015.12 1015.19 1015.22
1008.32 1008.53 1008.73 1008.94 1009.18 1009.43 1009.72 1010.01 1010.30 1010.58 1010.82 1011.03 1011.19 1011.30 1011.37 1011.42 1011.44 1011.47 1011.51 1011.57 1011.64 1011.73 1011.83 1011.94 1012.06 1012.18 1012.31 1012.44 1012.59 1012.75 1012.94 1013.14 1013.37 1013.60 1013.84 1014.08 1014.30 1014.49 1014.65 1014.78 1014.86 1014.92 1014.94
1009.31 1009.58 1009.82 1010.05 1010.28 1010.51 1010.74 1010.96 1011.18 1011.39 1011.57 1011.71 1011.82 1011.90 1011.94 1011.96 1011.97 1011.96 1011.96 1011.97 1011.98 1012.01 1012.05 1012.10 1012.17 1012.26 1012.36 1012.48 1012.62 1012.78 1012.96 1013.16 1013.36 1013.56 1013.76 1013.94 1014.10 1014.24 1014.35 1014.43 1014.48 1014.52 1014.53
Thickness
5754 5750 5747 5744 5739 5736 5734 5732 5732 5732 5732 5730 5728 5728 5728 5730 5730 5732 5732 5731 5731 5730 5729 5728 5726 5725 5723 5722 5720 5718 5717 5715 5715 5713 5712 5713 5715 5715 5715 5715 5715 5714 5714
5749 5747 5744 5741 5737 5733 5732 5730 5729 5728 5729 5730 5729 5728 5729 5728 5729 5729 5729 5729 5729 5729 5728 5727 5725 5724 5722 5720 5719 5718 5715 5714 5713 5712 5708 5706 5708 5711 5713 5713 5713 5713 5712
5748 5745 5742 5739 5736 5732 5730 5730 5727 5726 5727 5727 5726 5725 5725 5725 5724 5725 5727 5727 5728 5728 5728 5726 5724 5723 5722 5720 5719 5718 5716 5713 5711 5712 5710 5705 5702 5704 5708 5710 5710 5711 5710
5750 5745 5742 5738 5736 5735 5733 5730 5727 5726 5727 5727 5726 5725 5723 5722 5724 5725 5726 5726 5727 5727 5727 5725 5724 5723 5722 5720 5719 5718 5717 5715 5711 5710 5710 5709 5708 5704 5702 5705 5707 5708 5708
5751 5747 5744 5741 5738 5736 5733 5731 5729 5727 5727 5728 5727 5725 5724 5725 5724 5724 5724 5724 5724 5725 5725 5725 5724 5722 5721 5720 5719 5718 5717 5716 5713 5711 5709 5707 5705 5705 5702 5699 5701 5704 5705
5753 5749 5745 5742 5737 5735 5733 5731 5729 5728 5728 5727 5727 5726 5725 5724 5723 5721 5721 5721 5722 5723 5724 5724 5723 5722 5720 5719 5719 5718 5717 5715 5714 5712 5711 5709 5706 5704 5702 5698 5697 5698 5700
5754 5748 5744 5740 5737 5735 5734 5731 5730 5728 5728 5727 5727 5727 5726 5725 5724 5723 5722 5721 5720 5722 5723 5723 5722 5721 5720 5719 5718 5717 5716 5715 5714 5712 5711 5710 5708 5706 5703 5699 5696 5694 5696
5755 5751 5747 5743 5740 5738 5735 5733 5730 5729 5729 5728 5728 5728 5727 5725 5725 5725 5725 5724 5724 5724 5724 5723 5722 5721 5719 5718 5717 5716 5714 5713 5713 5712 5710 5708 5707 5705 5704 5701 5696 5692 5691
5757 5753 5750 5746 5743 5740 5738 5736 5733 5730 5729 5729 5728 5727 5727 5727 5726 5726 5726 5726 5726 5725 5724 5723 5722 5720 5718 5717 5715 5714 5712 5711 5710 5709 5708 5706 5705 5703 5702 5700 5698 5693 5688
5759 5756 5752 5749 5747 5744 5741 5738 5735 5734 5732 5731 5729 5729 5728 5728 5727 5727 5726 5726 5725 5725 5724 5722 5720 5718 5716 5715 5713 5712 5710 5708 5707 5706 5704 5703 5701 5700 5698 5697 5695 5693 5690
5760 5758 5755 5752 5749 5747 5743 5738 5736 5734 5733 5732 5731 5729 5728 5727 5727 5727 5727 5726 5725 5724 5723 5721 5719 5717 5714 5713 5711 5709 5708 5706 5704 5703 5701 5699 5698 5696 5694 5693 5691 5689 5687
5761 5759 5756 5753 5749 5747 5744 5741 5738 5736 5735 5734 5732 5729 5728 5726 5725 5725 5725 5725 5724 5723 5722 5720 5718 5715 5713 5711 5709 5707 5706 5704 5702 5700 5698 5696 5694 5692 5690 5689 5687 5685 5684
5760 5758 5754 5751 5749 5747 5745 5743 5740 5738 5736 5734 5731 5728 5727 5725 5725 5724 5724 5723 5722 5721 5720 5718 5716 5713 5712 5710 5708 5706 5704 5702 5700 5698 5695 5693 5690 5688 5686 5685 5683 5681 5680
5759 5756 5753 5751 5749 5747 5745 5743 5740 5739 5736 5733 5730 5729 5728 5727 5726 5724 5723 5722 5721 5719 5717 5716 5714 5712 5710 5708 5706 5703 5701 5699 5697 5695 5692 5690 5687 5685 5683 5681 5679 5677 5674
5757 5755 5752 5750 5748 5746 5744 5743 5741 5739 5736 5732 5730 5729 5729 5728 5725 5722 5721 5720 5718 5717 5714 5712 5710 5709 5707 5705 5703 5700 5698 5695 5692 5690 5688 5686 5684 5682 5679 5677 5674 5672 5669
5756 5755 5752 5750 5748 5747 5745 5743 5741 5739 5736 5732 5729 5728 5726 5724 5722 5720 5718 5716 5714 5713 5710 5709 5707 5705 5704 5703 5700 5697 5695 5691 5688 5685 5683 5681 5679 5677 5674 5672 5670 5667 5664
5754 5752 5751 5749 5748 5746 5744 5741 5740 5737 5734 5730 5728 5726 5723 5720 5718 5717 5714 5712 5710 5708 5706 5704 5702 5700 5699 5698 5695 5693 5689 5686 5683 5680 5677 5676 5675 5671 5668 5666 5664 5662 5660
5749 5749 5748 5747 5746 5744 5742 5740 5737 5733 5730 5727 5724 5722 5720 5717 5714 5712 5710 5707 5705 5703 5701 5699 5697 5695 5693 5691 5689 5685 5682 5679 5676 5674 5671 5668 5666 5664 5661 5659 5657 5655 5653
5744 5744 5744 5743 5741 5739 5738 5735 5731 5728 5726 5723 5721 5719 5717 5713 5710 5708 5706 5704 5701 5698 5696 5693 5692 5689 5687 5685 5681 5677 5674 5671 5669 5667 5664 5661 5659 5656 5653 5650 5649 5648 5646
5738 5737 5737 5736 5734 5733 5732 5729 5725 5722 5719 5718 5716 5715 5713 5710 5707 5705 5702 5699 5696 5693 5690 5688 5685 5682 5680 5678 5675 5670 5665 5662 5659 5657 5655 5653 5650 5648 5644 5641 5639 5637 5637
5728 5729 5727 5726 5725 5724 5724 5720 5716 5713 5713 5711 5708 5706 5705 5703 5701 5699 5697 5694 5690 5686 5683 5679 5676 5674 5671 5669 5666 5661 5657 5654 5651 5649 5647 5645 5641 5638 5635 5631 5630 5628 5626
5718 5718 5717 5715 5715 5715 5714 5710 5706 5705 5705 5703 5700 5697 5695 5694 5693 5690 5687 5684 5681 5677 5674 5669 5666 5664 5661 5658 5655 5651 5647 5645 5642 5640 5637 5634 5631 5627 5624 5621 5620 5618 5614
5705 5704 5705 5703 5702 5703 5703 5699 5695 5695 5694 5691 5688 5686 5684 5682 5680 5678 5675 5672 5669 5666 5663 5659 5655 5652 5649 5646 5643 5640 5637 5634 5630 5628 5625 5622 5619 5616 5613 5610 5608 5606 5603
5691 5692 5692 5690 5688 5688 5688 5686 5684 5684 5682 5679 5676 5674 5672 5669 5667 5665 5662 5659 5656 5653 5650 5647 5643 5640 5637 5634 5632 5629 5626 5622 5618 5615 5611 5608 5605 5602 5599 5597 5595 5592 5590
5677 5678 5678 5676 5674 5674 5673 5673 5673 5672 5669 5667 5665 5662 5660 5657 5654 5652 5649 5647 5644 5642 5639 5636 5632 5629 5626 5623 5620 5616 5613 5610 5606 5601 5597 5594 5591 5589 5587 5585 5583 5580 5578
5663 5663 5662 5662 5660 5660 5660 5660 5660 5660 5657 5654 5651 5649 5646 5644 5641 5639 5636 5633 5631 5629 5626 5623 5620 5617 5614 5610 5606 5602 5599 5594 5590 5586 5583 5581 5578 5577 5575 5573 5570 5568 5565